Location: Byszew
(52.1813°N, 19.2693°E)
Time: 22:38:02
(UTC+00:00)

Cosmos 2322 Rocket - Pass Details

Date: 26 June 2021
Orbit: 833 x 850 km, 71.0° (Epoch: 26 July)

Event Time Altitude Azimuth Distance (km) Brightness Sun altitude
Rises 21:02:36 0° 280° (W) 3,420 5.9 -11.2°
Reaches altitude 10° 21:06:13 10° 303° (WNW) 2,486 5.6 -11.4°
Maximum altitude 21:09:28 15° 338° (NNW) 2,135 5.7 -11.6°
Drops below altitude 10° 21:12:43 10° 13° (NNE) 2,486 5.5 -11.8°
Sets 21:16:20 0° 36° (NE) 3,421 5.9 -12.0°
